sat.trackr.live / text

‹ back to catalog

STARLINK-31289

NORAD 59173 · 2024-044X

PAYLOAD ACTIVE UNKNOWN

§ Identity

Operator
Country
US
Launch date
2024-03-04
Launch site
AFETR
Launch vehicle
Mass (kg)
RCS (m²)

Purposes: comms

External: N2YO · Heavens-Above · Gunter

§ Orbital elements

Epoch: 2026-09-20T22:09:49.541184Z

Period
94.27 min
Inclination
43.0033°
Eccentricity
0.0001240
Mean motion
15.27579039 rev/d
Perigee alt
482.2 km
Apogee alt
483.9 km
Semi-major
6,861.2 km
B*
-2.3180e-5
RAAN
84.4790°
Arg perigee
272.2028°
Mean anomaly
87.8681°
Rev number
14,345

§ Raw data

STARLINK-312891 59173U 24044X   26263.92349006 -.00000900  00000+0 -23180-4 0  99992 59173  43.0033  84.4790 0001240 272.2028  87.8681 15.27579039143455

JSON: /api/v1/satellites/59173 · /tle

For live sub-satellite position, see the globe view (requires WebGL).

§ Visibility from observer

Set your observer location to see the next 7 days of passes ≥ 10°. The values pass through the URL so the page stays shareable.

No JS? Fill the form by hand. The geolocation button needs JavaScript.